JAF2JW EBOS-LEMG

Flight info

Callsign JAF2JW
Flight time N/A
Altitude 35000
Route FERDI UY50 CIV N872 MEDIL DCT KOVIN DCT DUCRA UM728 RESMI UN857 DISAK DCT ARKIP DCT ARNAV DCT LMG DCT UVELI DCT OSMOB DCT ARVID DCT PPN DCT NOLSA N857 BAN DCT PINAR DCT CJN DCT INTAX DCT NASOS DCT ANZAN DCT BLN
Aircraft B738/M-SDE2E3FGHIRWXY/LB1

Departure

Time N/A
Airport Ostend-Bruges International Airport (EBOS)

Arrival

Time 2026-05-07 12:37
Airport Málaga-Costa del Sol Airport (LEMG)
Time Latitude Longitude Altitude Speed Heading
2026-05-07 10:37 48.96044 2.57605 36054 ft 411 kts 221°
2026-05-07 10:37 48.96043 2.57605 36055 ft 0 kts 215°
2026-05-07 10:38 48.95362 2.56868 36071 ft 406 kts 216°
2026-05-07 10:38 48.93026 2.54446 35845 ft 407 kts 213°
2026-05-07 10:38 48.88173 2.49707 35616 ft 423 kts 213°
2026-05-07 10:39 48.85659 2.47273 35492 ft 432 kts 213°
2026-05-07 10:39 48.83111 2.44794 35360 ft 440 kts 213°
2026-05-07 10:39 48.80509 2.42253 35227 ft 448 kts 213°
2026-05-07 10:39 48.77882 2.39681 35160 ft 451 kts 213°
2026-05-07 10:40 48.72606 2.34513 35136 ft 451 kts 213°
2026-05-07 10:40 48.67325 2.29351 35128 ft 451 kts 213°
2026-05-07 10:41 48.62089 2.24245 35138 ft 451 kts 213°
2026-05-07 10:41 48.56758 2.19256 35091 ft 450 kts 204°
2026-05-07 10:42 48.53757 2.17957 35142 ft 450 kts 190°
2026-05-07 10:42 48.50651 2.17154 35109 ft 455 kts 191°
2026-05-07 10:42 48.44407 2.15219 35118 ft 461 kts 193°
2026-05-07 10:43 48.38117 2.13155 35106 ft 463 kts 193°
2026-05-07 10:43 48.31805 2.11120 35104 ft 464 kts 192°
2026-05-07 10:44 48.25411 2.10334 35107 ft 465 kts 171°
2026-05-07 10:44 48.19027 2.12010 35117 ft 466 kts 172°
2026-05-07 10:45 48.12603 2.13211 35103 ft 465 kts 181°
2026-05-07 10:45 48.06214 2.12023 35120 ft 463 kts 189°
2026-05-07 10:46 47.99842 2.10628 35131 ft 463 kts 188°
2026-05-07 10:46 47.93465 2.09358 35133 ft 463 kts 188°
2026-05-07 10:47 47.87079 2.08137 35141 ft 462 kts 188°
2026-05-07 10:47 47.80700 2.06921 35129 ft 462 kts 188°
2026-05-07 10:48 47.74318 2.05701 35125 ft 462 kts 188°
2026-05-07 10:48 47.67941 2.04484 35110 ft 462 kts 188°
2026-05-07 10:49 47.61609 2.02927 35081 ft 461 kts 199°
2026-05-07 10:49 47.55677 1.99376 35093 ft 460 kts 203°
2026-05-07 10:50 47.49755 1.95767 35097 ft 460 kts 202°
2026-05-07 10:50 47.43800 1.92277 35099 ft 460 kts 202°
2026-05-07 10:51 47.37830 1.88838 35103 ft 460 kts 202°
2026-05-07 10:51 47.31857 1.85405 35107 ft 461 kts 202°
2026-05-07 10:52 47.25883 1.81973 35111 ft 461 kts 202°
2026-05-07 10:52 47.19906 1.78547 35104 ft 462 kts 201°
2026-05-07 10:53 47.13905 1.75157 35100 ft 462 kts 201°
2026-05-07 10:53 47.07890 1.71786 35103 ft 463 kts 201°
2026-05-07 10:54 47.01873 1.68417 35102 ft 463 kts 201°
2026-05-07 10:54 46.95848 1.65047 35106 ft 463 kts 201°
2026-05-07 10:55 46.89822 1.61682 35103 ft 464 kts 201°
2026-05-07 10:55 46.83797 1.58326 35104 ft 464 kts 201°
2026-05-07 10:56 46.77762 1.54974 35102 ft 464 kts 201°
2026-05-07 10:56 46.71728 1.51628 35096 ft 464 kts 201°
2026-05-07 10:57 46.65687 1.48288 35092 ft 464 kts 201°
2026-05-07 10:57 46.59646 1.44956 35084 ft 464 kts 201°
2026-05-07 10:58 46.53610 1.41634 35081 ft 464 kts 201°
2026-05-07 10:58 46.47570 1.38318 35076 ft 464 kts 201°
2026-05-07 10:59 46.41528 1.35009 35076 ft 464 kts 201°
2026-05-07 10:59 46.35480 1.31705 35072 ft 464 kts 201°
2026-05-07 11:00 46.29439 1.28411 35068 ft 464 kts 201°
2026-05-07 11:00 46.23391 1.25122 35067 ft 464 kts 201°
2026-05-07 11:01 46.17342 1.21842 35072 ft 464 kts 201°
2026-05-07 11:01 46.11285 1.18562 35071 ft 465 kts 201°
2026-05-07 11:02 46.05223 1.15288 35074 ft 465 kts 201°
2026-05-07 11:02 46.00185 1.12573 35073 ft 465 kts 201°
2026-05-07 11:03 45.94123 1.09313 35078 ft 465 kts 201°
2026-05-07 11:03 45.88070 1.06065 35074 ft 464 kts 201°
2026-05-07 11:04 45.82032 1.02767 35066 ft 463 kts 206°
2026-05-07 11:04 45.79361 1.00249 35084 ft 459 kts 223°
2026-05-07 11:04 45.76989 0.97186 35076 ft 460 kts 222°
2026-05-07 11:05 45.72134 0.91217 35059 ft 460 kts 221°
2026-05-07 11:05 45.67212 0.85351 35062 ft 460 kts 220°
2026-05-07 11:06 45.62287 0.79508 35054 ft 460 kts 220°
2026-05-07 11:06 45.57367 0.73669 35064 ft 460 kts 220°
2026-05-07 11:07 45.52449 0.67837 35058 ft 460 kts 220°
2026-05-07 11:07 45.47530 0.62015 35068 ft 460 kts 220°
2026-05-07 11:08 45.42606 0.56203 35067 ft 459 kts 220°
2026-05-07 11:08 45.37686 0.50408 35059 ft 459 kts 220°
2026-05-07 11:09 45.32766 0.44627 35065 ft 459 kts 220°
2026-05-07 11:09 45.27848 0.38862 35073 ft 458 kts 220°
2026-05-07 11:10 45.22929 0.33107 35074 ft 458 kts 220°
2026-05-07 11:10 45.18011 0.27369 35068 ft 458 kts 220°
2026-05-07 11:11 45.13095 0.21644 35067 ft 457 kts 220°
2026-05-07 11:11 45.08179 0.15931 35066 ft 457 kts 220°
2026-05-07 11:12 45.03264 0.10235 35068 ft 457 kts 220°
2026-05-07 11:12 44.98351 0.04557 35071 ft 456 kts 220°
2026-05-07 11:13 44.93438 -0.01110 35068 ft 455 kts 220°
2026-05-07 11:13 44.88534 -0.06757 35071 ft 455 kts 220°
2026-05-07 11:14 44.83635 -0.12386 35067 ft 454 kts 220°
2026-05-07 11:14 44.78737 -0.18001 35068 ft 453 kts 220°
2026-05-07 11:15 44.73849 -0.23592 35066 ft 453 kts 220°
2026-05-07 11:15 44.68955 -0.29180 35068 ft 453 kts 220°
2026-05-07 11:16 44.64017 -0.34659 35049 ft 453 kts 214°
2026-05-07 11:16 44.58454 -0.38851 35071 ft 454 kts 208°
2026-05-07 11:17 44.52800 -0.42812 35051 ft 454 kts 208°
2026-05-07 11:17 44.47178 -0.46840 35057 ft 453 kts 209°
2026-05-07 11:18 44.41586 -0.50914 35057 ft 453 kts 209°
2026-05-07 11:18 44.36002 -0.55000 35054 ft 453 kts 209°
2026-05-07 11:19 44.30421 -0.59075 35054 ft 453 kts 209°
2026-05-07 11:19 44.24834 -0.63143 35057 ft 452 kts 209°
2026-05-07 11:20 44.19246 -0.67200 35055 ft 452 kts 209°
2026-05-07 11:20 44.13658 -0.71250 35052 ft 453 kts 209°
2026-05-07 11:21 44.08069 -0.75291 35047 ft 452 kts 209°
2026-05-07 11:21 44.02484 -0.79320 35049 ft 452 kts 209°
2026-05-07 11:22 43.96899 -0.83341 35045 ft 452 kts 209°
2026-05-07 11:22 43.91315 -0.87352 35043 ft 452 kts 209°
2026-05-07 11:23 43.85728 -0.91358 35045 ft 451 kts 209°
2026-05-07 11:23 43.80152 -0.95346 35046 ft 451 kts 209°
2026-05-07 11:24 43.74578 -0.99326 35051 ft 450 kts 209°
2026-05-07 11:24 43.69003 -1.03297 35053 ft 450 kts 209°
2026-05-07 11:25 43.63433 -1.07257 35051 ft 450 kts 209°
2026-05-07 11:25 43.57868 -1.11204 35048 ft 450 kts 209°
2026-05-07 11:26 43.52301 -1.15145 35045 ft 449 kts 209°
2026-05-07 11:26 43.46905 -1.18957 35031 ft 449 kts 209°
2026-05-07 11:27 43.41351 -1.22873 35022 ft 448 kts 208°
2026-05-07 11:27 43.35840 -1.26750 35025 ft 448 kts 208°
2026-05-07 11:28 43.30263 -1.30666 35025 ft 447 kts 208°
2026-05-07 11:28 43.24718 -1.34552 35016 ft 447 kts 208°
2026-05-07 11:29 43.19183 -1.38422 35033 ft 447 kts 209°
2026-05-07 11:29 43.13644 -1.42289 35021 ft 446 kts 208°
2026-05-07 11:30 43.08110 -1.46143 35023 ft 446 kts 208°
2026-05-07 11:30 43.02579 -1.49991 35016 ft 445 kts 208°
2026-05-07 11:31 42.97096 -1.53804 34979 ft 438 kts 207°
2026-05-07 11:31 42.91700 -1.57549 35016 ft 435 kts 207°
2026-05-07 11:32 42.83628 -1.63139 35028 ft 434 kts 207°
2026-05-07 11:33 42.78251 -1.66854 35022 ft 433 kts 207°
2026-05-07 11:33 42.72875 -1.70558 35026 ft 433 kts 207°
2026-05-07 11:34 42.67479 -1.74199 35027 ft 433 kts 206°
2026-05-07 11:34 42.62074 -1.77814 35022 ft 433 kts 206°
2026-05-07 11:35 42.56663 -1.81436 35016 ft 434 kts 206°
2026-05-07 11:35 42.51255 -1.85054 35013 ft 434 kts 206°
2026-05-07 11:36 42.45846 -1.88668 35014 ft 434 kts 206°
2026-05-07 11:36 42.40430 -1.92279 35005 ft 434 kts 206°
2026-05-07 11:37 42.35017 -1.95887 35011 ft 434 kts 206°
2026-05-07 11:37 42.29600 -1.99498 35005 ft 434 kts 206°
2026-05-07 11:38 42.24181 -2.03104 35006 ft 434 kts 206°
2026-05-07 11:38 42.18760 -2.06698 35007 ft 434 kts 206°
2026-05-07 11:39 42.13340 -2.10284 35006 ft 434 kts 206°
2026-05-07 11:39 42.07916 -2.13863 35006 ft 434 kts 206°
2026-05-07 11:40 42.02490 -2.17438 35006 ft 434 kts 206°
2026-05-07 11:40 41.97102 -2.20983 35015 ft 434 kts 206°
2026-05-07 11:41 41.92563 -2.23964 35012 ft 433 kts 206°
2026-05-07 11:41 41.87149 -2.27513 35018 ft 433 kts 206°
2026-05-07 11:42 41.81739 -2.31054 35015 ft 432 kts 206°
2026-05-07 11:42 41.76336 -2.34583 35013 ft 431 kts 206°
2026-05-07 11:43 41.71019 -2.38049 35011 ft 431 kts 206°
2026-05-07 11:43 41.65627 -2.41558 35017 ft 430 kts 206°
2026-05-07 11:44 41.60246 -2.45053 35009 ft 430 kts 206°
2026-05-07 11:44 41.54865 -2.48543 35008 ft 430 kts 206°
2026-05-07 11:45 41.49482 -2.52026 35012 ft 430 kts 205°
2026-05-07 11:45 41.44093 -2.55494 35004 ft 430 kts 205°
2026-05-07 11:46 41.38695 -2.58962 35005 ft 431 kts 205°
2026-05-07 11:46 41.33241 -2.62274 34981 ft 432 kts 196°
2026-05-07 11:46 41.30281 -2.62902 35017 ft 433 kts 182°
2026-05-07 11:47 41.27263 -2.62679 35020 ft 435 kts 177°
2026-05-07 11:47 41.21221 -2.62020 35006 ft 436 kts 178°
2026-05-07 11:48 41.15159 -2.61438 35005 ft 437 kts 178°
2026-05-07 11:48 41.09116 -2.60894 35006 ft 438 kts 178°
2026-05-07 11:49 41.03030 -2.60351 35006 ft 439 kts 178°
2026-05-07 11:49 40.96939 -2.59805 35005 ft 439 kts 178°
2026-05-07 11:50 40.90837 -2.59259 35003 ft 440 kts 178°
2026-05-07 11:50 40.84726 -2.58713 35001 ft 440 kts 178°
2026-05-07 11:51 40.78614 -2.58168 35005 ft 440 kts 178°
2026-05-07 11:51 40.72497 -2.57623 35005 ft 441 kts 178°
2026-05-07 11:52 40.66366 -2.57079 35006 ft 441 kts 178°
2026-05-07 11:52 40.60238 -2.56535 35001 ft 442 kts 178°
2026-05-07 11:53 40.54102 -2.55992 35001 ft 442 kts 179°
2026-05-07 11:53 40.47959 -2.55449 35003 ft 442 kts 179°
2026-05-07 11:54 40.41815 -2.54907 35006 ft 442 kts 179°
2026-05-07 11:54 40.35733 -2.55145 35007 ft 436 kts 198°
2026-05-07 11:55 40.30077 -2.57987 35012 ft 435 kts 202°
2026-05-07 11:55 40.24443 -2.60888 34999 ft 435 kts 202°
2026-05-07 11:56 40.18796 -2.63739 35004 ft 435 kts 202°
2026-05-07 11:56 40.13140 -2.66569 35011 ft 435 kts 202°
2026-05-07 11:57 40.07484 -2.69391 35010 ft 434 kts 202°
2026-05-07 11:57 40.01840 -2.72204 35005 ft 434 kts 202°
2026-05-07 11:58 39.96191 -2.75014 35007 ft 434 kts 202°
2026-05-07 11:58 39.90545 -2.77818 35008 ft 434 kts 202°
2026-05-07 11:59 39.84895 -2.80620 35003 ft 435 kts 202°
2026-05-07 11:59 39.79237 -2.83421 34997 ft 435 kts 202°
2026-05-07 12:00 39.73572 -2.86220 35003 ft 436 kts 202°
2026-05-07 12:00 39.67894 -2.89021 34992 ft 437 kts 202°
2026-05-07 12:01 39.62203 -2.91824 34993 ft 438 kts 202°
2026-05-07 12:01 39.56494 -2.94632 34997 ft 440 kts 202°
2026-05-07 12:02 39.50800 -2.97438 34985 ft 442 kts 203°
2026-05-07 12:02 39.45046 -3.00271 34986 ft 443 kts 203°
2026-05-07 12:03 39.39231 -3.03126 34981 ft 444 kts 203°
2026-05-07 12:03 39.33441 -3.05943 34988 ft 445 kts 203°
2026-05-07 12:04 39.27627 -3.08760 34971 ft 447 kts 203°
2026-05-07 12:04 39.21807 -3.11577 34979 ft 447 kts 203°
2026-05-07 12:05 39.15986 -3.14392 34981 ft 447 kts 203°
2026-05-07 12:05 39.10156 -3.17207 34983 ft 447 kts 203°
2026-05-07 12:06 39.04359 -3.20001 34985 ft 448 kts 204°
2026-05-07 12:06 38.98521 -3.22810 34977 ft 448 kts 204°
2026-05-07 12:07 38.92675 -3.25627 34980 ft 449 kts 204°
2026-05-07 12:07 38.86828 -3.28444 34978 ft 449 kts 204°
2026-05-07 12:08 38.80941 -3.31274 34976 ft 449 kts 204°
2026-05-07 12:08 38.75090 -3.34082 34978 ft 449 kts 204°
2026-05-07 12:09 38.69231 -3.36889 34979 ft 449 kts 204°
2026-05-07 12:09 38.63411 -3.39673 34980 ft 450 kts 205°
2026-05-07 12:10 38.57537 -3.42476 34982 ft 450 kts 205°
2026-05-07 12:10 38.51667 -3.45274 34980 ft 451 kts 205°
2026-05-07 12:11 38.45792 -3.48069 34982 ft 451 kts 205°
2026-05-07 12:11 38.39907 -3.50864 34974 ft 452 kts 205°
2026-05-07 12:12 38.34025 -3.53651 34963 ft 446 kts 205°
2026-05-07 12:12 38.31149 -3.55008 34727 ft 436 kts 206°
2026-05-07 12:12 38.28321 -3.56345 34278 ft 431 kts 206°
2026-05-07 12:12 38.25516 -3.57673 33868 ft 430 kts 206°
2026-05-07 12:13 38.22691 -3.59014 33408 ft 437 kts 206°
2026-05-07 12:13 38.19796 -3.60385 32930 ft 444 kts 206°
2026-05-07 12:13 38.16901 -3.61759 32645 ft 443 kts 208°
2026-05-07 12:13 38.14257 -3.63635 32335 ft 431 kts 225°
2026-05-07 12:14 38.12140 -3.66271 32134 ft 425 kts 230°
2026-05-07 12:14 38.10044 -3.68941 31859 ft 427 kts 229°
2026-05-07 12:14 38.07912 -3.71572 31602 ft 428 kts 229°
2026-05-07 12:14 38.05759 -3.74193 31343 ft 429 kts 229°
2026-05-07 12:15 38.03598 -3.76811 31098 ft 430 kts 229°
2026-05-07 12:15 38.01430 -3.79436 30855 ft 432 kts 229°
2026-05-07 12:15 37.99250 -3.82076 30604 ft 433 kts 229°
2026-05-07 12:15 37.97070 -3.84718 30362 ft 434 kts 229°
2026-05-07 12:16 37.94883 -3.87372 30025 ft 438 kts 229°
2026-05-07 12:16 37.92673 -3.90054 29593 ft 441 kts 229°
2026-05-07 12:16 37.90451 -3.92749 29170 ft 444 kts 229°
2026-05-07 12:16 37.88219 -3.95453 28762 ft 445 kts 229°
2026-05-07 12:17 37.85976 -3.98166 28333 ft 446 kts 229°
2026-05-07 12:17 37.83736 -4.00872 27930 ft 445 kts 229°
2026-05-07 12:17 37.81493 -4.03578 27534 ft 445 kts 229°
2026-05-07 12:17 37.79252 -4.06282 27131 ft 445 kts 229°
2026-05-07 12:18 37.77014 -4.08979 26749 ft 445 kts 228°
2026-05-07 12:18 37.74773 -4.11679 26368 ft 445 kts 228°
2026-05-07 12:18 37.72531 -4.14377 26006 ft 445 kts 228°
2026-05-07 12:18 37.70287 -4.17076 25608 ft 446 kts 228°
2026-05-07 12:19 37.68067 -4.19742 25091 ft 432 kts 228°
2026-05-07 12:19 37.65927 -4.22304 24604 ft 415 kts 228°
2026-05-07 12:19 37.63875 -4.24765 24117 ft 400 kts 227°
2026-05-07 12:19 37.61893 -4.27141 23649 ft 387 kts 227°
2026-05-07 12:20 37.59974 -4.29440 23129 ft 375 kts 227°
2026-05-07 12:20 37.58050 -4.31610 22570 ft 369 kts 219°
2026-05-07 12:20 37.55727 -4.33020 21875 ft 374 kts 200°
2026-05-07 12:20 37.54032 -4.33434 21430 ft 377 kts 189°
2026-05-07 12:21 37.51409 -4.33531 20793 ft 376 kts 185°
2026-05-07 12:21 37.48803 -4.33609 20135 ft 373 kts 185°
2026-05-07 12:21 37.46215 -4.33724 19437 ft 372 kts 185°
2026-05-07 12:21 37.42820 -4.33898 18696 ft 365 kts 185°
2026-05-07 12:22 37.41107 -4.33986 18307 ft 363 kts 185°
2026-05-07 12:22 37.38603 -4.34112 17680 ft 359 kts 185°
2026-05-07 12:22 37.36118 -4.34236 17037 ft 355 kts 185°
2026-05-07 12:22 37.33660 -4.34358 16413 ft 352 kts 185°
2026-05-07 12:23 37.31224 -4.34480 15804 ft 349 kts 185°
2026-05-07 12:23 37.28812 -4.34601 15194 ft 346 kts 184°
2026-05-07 12:23 37.26413 -4.34722 14611 ft 343 kts 184°
2026-05-07 12:23 37.24041 -4.34843 14032 ft 340 kts 184°
2026-05-07 12:24 37.21687 -4.34961 13424 ft 337 kts 184°
2026-05-07 12:24 37.19347 -4.35077 12730 ft 337 kts 184°
2026-05-07 12:24 37.17050 -4.35458 12017 ft 330 kts 201°
2026-05-07 12:24 37.15127 -4.36933 11392 ft 323 kts 224°
2026-05-07 12:25 37.13798 -4.39163 10752 ft 319 kts 243°
2026-05-07 12:25 37.13104 -4.41779 10124 ft 317 kts 259°
2026-05-07 12:25 37.13051 -4.44531 9456 ft 317 kts 278°
2026-05-07 12:25 37.13548 -4.47208 8801 ft 314 kts 279°
2026-05-07 12:26 37.13523 -4.49893 8062 ft 309 kts 250°
2026-05-07 12:26 37.12388 -4.52103 7440 ft 303 kts 220°
2026-05-07 12:26 37.10506 -4.53212 6809 ft 303 kts 190°
2026-05-07 12:26 37.08413 -4.53402 6212 ft 301 kts 186°
2026-05-07 12:27 37.06376 -4.53772 5787 ft 290 kts 193°
2026-05-07 12:27 37.04490 -4.54496 5498 ft 277 kts 205°
2026-05-07 12:27 37.02834 -4.55543 5424 ft 257 kts 209°
2026-05-07 12:27 37.01316 -4.56588 5358 ft 240 kts 209°
2026-05-07 12:28 36.99879 -4.57573 5319 ft 231 kts 209°
2026-05-07 12:28 36.98497 -4.58507 5285 ft 228 kts 208°
2026-05-07 12:28 36.97109 -4.59434 5191 ft 225 kts 208°
2026-05-07 12:28 36.95743 -4.60338 5120 ft 223 kts 208°
2026-05-07 12:29 36.94369 -4.61238 4987 ft 222 kts 208°
2026-05-07 12:29 36.93000 -4.62131 4822 ft 221 kts 208°
2026-05-07 12:29 36.91657 -4.63005 4643 ft 214 kts 207°
2026-05-07 12:29 36.90352 -4.63851 4479 ft 209 kts 208°
2026-05-07 12:30 36.89077 -4.64677 4336 ft 205 kts 207°
2026-05-07 12:30 36.87802 -4.65501 4178 ft 207 kts 207°
2026-05-07 12:30 36.86521 -4.66328 4046 ft 208 kts 207°
2026-05-07 12:30 36.85231 -4.67161 3903 ft 209 kts 206°
2026-05-07 12:31 36.83943 -4.67992 3757 ft 207 kts 206°
2026-05-07 12:31 36.82682 -4.68804 3583 ft 200 kts 206°
2026-05-07 12:31 36.81451 -4.69597 3413 ft 193 kts 206°
2026-05-07 12:31 36.80283 -4.70348 3282 ft 184 kts 206°
2026-05-07 12:32 36.79089 -4.70908 3182 ft 184 kts 182°
2026-05-07 12:32 36.77899 -4.70500 3190 ft 178 kts 151°
2026-05-07 12:32 36.76972 -4.69486 3168 ft 182 kts 124°
2026-05-07 12:32 36.76400 -4.68063 3199 ft 187 kts 120°
2026-05-07 12:33 36.75184 -4.65212 3103 ft 187 kts 121°
2026-05-07 12:33 36.74553 -4.63769 2742 ft 189 kts 119°
2026-05-07 12:33 36.73976 -4.62364 2392 ft 176 kts 119°
2026-05-07 12:34 36.73450 -4.61110 2300 ft 148 kts 118°
2026-05-07 12:34 36.72985 -4.60000 2177 ft 142 kts 118°
2026-05-07 12:34 36.72537 -4.58938 2093 ft 140 kts 121°
2026-05-07 12:34 36.72073 -4.57845 2028 ft 146 kts 120°
2026-05-07 12:35 36.71573 -4.56675 1637 ft 159 kts 118°
2026-05-07 12:35 36.71087 -4.55452 1262 ft 148 kts 118°
2026-05-07 12:35 36.70623 -4.54352 902 ft 139 kts 120°
2026-05-07 12:35 36.70173 -4.53305 549 ft 135 kts 121°
2026-05-07 12:36 36.69896 -4.52671 428 ft 135 kts 120°
2026-05-07 12:36 36.69445 -4.51585 238 ft 143 kts 118°
2026-05-07 12:36 36.68992 -4.50504 61 ft 138 kts 117°
2026-05-07 12:36 36.68584 -4.49539 47 ft 110 kts 118°
2026-05-07 12:37 36.68339 -4.48999 43 ft 49 kts 129°
2026-05-07 12:37 36.68152 -4.48853 38 ft 12 kts 185°
2026-05-07 12:37 36.68147 -4.48944 37 ft 12 kts 298°
2026-05-07 12:37 36.68189 -4.49042 38 ft 13 kts 298°
2026-05-07 12:38 36.68230 -4.49139 39 ft 12 kts 297°
2026-05-07 12:38 36.68269 -4.49234 39 ft 12 kts 297°
2026-05-07 12:38 36.68269 -4.49331 37 ft 12 kts 225°
2026-05-07 12:38 36.68205 -4.49404 40 ft 12 kts 221°
2026-05-07 12:39 36.68142 -4.49473 41 ft 12 kts 221°
2026-05-07 12:39 36.68080 -4.49541 41 ft 12 kts 221°
2026-05-07 12:39 36.68021 -4.49607 41 ft 11 kts 222°
2026-05-07 12:39 36.67963 -4.49672 41 ft 11 kts 223°
2026-05-07 12:40 36.67907 -4.49735 41 ft 11 kts 221°
2026-05-07 12:40 36.67869 -4.49755 41 ft 2 kts 153°
2026-05-07 12:40 36.67835 -4.49705 41 ft 13 kts 131°
2026-05-07 12:40 36.67802 -4.49659 41 ft 2 kts 132°
2026-05-07 12:41 36.67798 -4.49654 41 ft 0 kts 132°